FW0192 Weather Reports


Display with metric or nautical units.
time (UTC)temp
F
wind
direction
speed
MPH
gust
MPH
rain 1hr
in
rain 24hr
in
rain mn
in
humidity
%
barometer
mb
20181016073204 31 202 6.0 8.0 0.00 0.00 0.00 76 1028.0
20181016071703 31 202 5.0 8.0 0.00 0.00 0.00 75 1028.0
20181016070228 30 202 6.0 7.0 0.00 0.00 0.00 75 1027.8
20181016063221 31 229 6.0 7.0 0.00 0.00 0.00 72 1027.9
20181016060215 31 234 6.0 8.0 0.00 0.00 0.00 73 1028.0
20181016033204 33 194 4.0 5.0 0.00 0.00 0.00 52 1027.5
20181016031703 33 225 0.0 3.0 0.00 0.00 0.00 50 1027.5
20181016030204 33 227 1.0 3.0 0.00 0.00 0.00 51 1027.4
20181016024704 34 227 2.0 3.0 0.00 0.00 0.00 51 1027.4
20181016023204 36 227 1.0 3.0 0.00 0.00 0.00 49 1027.3
20181016021704 37 227 0.0 0.0 0.00 0.00 0.00 45 1027.3
20181016020204 38 227 0.0 0.0 0.00 0.00 0.00 41 1027.3
20181016014704 39 227 0.0 0.0 0.00 0.00 0.00 41 1027.3
20181016013204 40 227 0.0 0.0 0.00 0.00 0.00 46 1027.3
20181016011704 40 227 0.0 0.0 0.00 0.00 0.00 33 1027.2
20181016010205 40 227 0.0 0.0 0.00 0.00 0.00 35 1027.1
20181016004704 41 227 0.0 0.0 0.00 0.00 0.00 39 1027.1
20181016003204 42 227 0.0 0.0 0.00 0.00 0.00 45 1027.2
20181016001704 43 227 0.0 0.0 0.00 0.00 0.00 46 1027.1
20181016000203 44 227 0.0 4.0 0.00 0.00 0.00 43 1026.9
20181015234704 46 227 2.0 4.0 0.00 0.00 0.00 40 1027.1
20181015233205 46 325 1.0 5.0 0.00 0.00 0.00 29 1026.9
20181015231704 47 292 1.0 4.0 0.00 0.00 0.00 26 1027.1
20181015230204 46 62 3.0 5.0 0.00 0.00 0.00 29 1027.1
20181015224703 47 28 4.0 9.0 0.00 0.00 0.00 28 1027.1
20181015223204 47 319 5.0 9.0 0.00 0.00 0.00 30 1027.2
20181015221704 47 329 4.0 8.0 0.00 0.00 0.00 28 1027.2
20181015220205 47 46 4.0 9.0 0.00 0.00 0.00 27 1027.2
20181015214704 47 42 6.0 10.0 0.00 0.00 0.00 26 1027.2
20181015213204 47 31 6.0 12.0 0.00 0.00 0.00 27 1027.2
20181015211704 47 36 5.0 9.0 0.00 0.00 0.00 29 1027.2
20181015210204 47 297 3.0 10.0 0.00 0.00 0.00 30 1027.2
20181015204704 47 17 2.0 6.0 0.00 0.00 0.00 31 1027.2
20181015203204 46 350 1.0 6.0 0.00 0.00 0.00 28 1027.2
20181015201704 46 302 2.0 9.0 0.00 0.00 0.00 27 1027.2
20181015200204 45 265 3.0 8.0 0.00 0.01 0.00 31 1027.2
20181015194704 45 294 4.0 9.0 0.00 0.01 0.00 33 1027.3
20181015193204 44 250 3.0 8.0 0.00 0.01 0.00 38 1027.4
20181015191704 44 204 5.0 9.0 0.00 0.02 0.00 38 1027.5
20181015190204 43 221 5.0 9.0 0.00 0.03 0.00 40 1027.8
20181015184705 42 154 6.0 13.0 0.00 0.04 0.00 46 1027.8
20181015183204 41 222 9.0 12.0 0.00 0.05 0.00 63 1027.8
20181015181703 40 214 8.0 12.0 0.00 0.05 0.00 65 1028.0
20181015180204 39 200 7.0 11.0 0.00 0.05 0.00 64 1028.1
20181015174704 38 233 7.0 11.0 0.00 0.05 0.00 65 1028.2
20181015173203 37 210 7.0 9.0 0.00 0.05 0.00 67 1028.2
20181015171704 36 207 6.0 11.0 0.00 0.05 0.00 68 1028.2
20181015170204 35 203 6.0 10.0 0.00 0.05 0.00 71 1028.3
20181015164704 33 211 8.0 11.0 0.00 0.05 0.00 72 1028.3
20181015163204 33 218 9.0 13.0 0.00 0.05 0.00 74 1028.3
20181015161704 31 198 7.0 10.0 0.00 0.05 0.00 77 1028.5
20181015160204 30 207 7.0 10.0 0.00 0.05 0.00 81 1028.6
20181015154720 29 213 7.0 11.0 0.00 0.05 0.00 82 1028.5
20181015153203 28 200 8.0 11.0 0.00 0.05 0.00 83 1028.5
20181015151704 27 205 8.0 12.0 0.00 0.05 0.00 84 1028.5
20181015150204 25 207 8.0 11.0 0.00 0.05 0.00 85 1028.3
20181015144704 24 199 8.0 11.0 0.00 0.05 0.00 86 1028.2
20181015143204 23 204 7.0 10.0 0.00 0.05 0.00 86 1028.0
20181015141704 22 219 7.0 10.0 0.00 0.05 0.00 87 1028.0
20181015140204 21 211 8.0 11.0 0.00 0.05 0.00 88 1027.9
20181015134704 20 210 8.0 11.0 0.00 0.05 0.00 88 1027.6
20181015133204 19 209 7.0 9.0 0.00 0.05 0.00 88 1027.6
20181015131704 19 211 8.0 11.0 0.00 0.05 0.00 88 1027.6
20181015130204 19 214 7.0 9.0 0.00 0.05 0.00 89 1027.8
20181015124704 19 227 7.0 9.0 0.00 0.05 0.00 89 1027.8
20181015123204 19 222 7.0 9.0 0.00 0.05 0.00 89 1027.8
20181015121704 19 219 8.0 10.0 0.00 0.05 0.00 88 1027.8
20181015120205 19 211 7.0 10.0 0.00 0.05 0.00 89 1027.8
20181015114704 19 207 7.0 9.0 0.00 0.05 0.00 89 1027.6
20181015113204 19 215 7.0 9.0 0.00 0.05 0.00 89 1027.6
20181015111704 19 209 5.0 8.0 0.00 0.05 0.00 89 1027.6
20181015110204 19 202 4.0 9.0 0.00 0.05 0.00 89 1027.5
20181015104704 19 216 7.0 9.0 0.00 0.05 0.00 89 1027.5
20181015103204 20 221 7.0 9.0 0.00 0.05 0.00 90 1027.4
20181015101704 19 217 6.0 8.0 0.00 0.05 0.00 90 1027.4
20181015100204 18 201 6.0 8.0 0.00 0.05 0.00 91 1027.4
20181015094704 18 238 6.0 7.0 0.00 0.05 0.00 91 1027.4
20181015093204 19 236 5.0 6.0 0.00 0.05 0.00 91 1027.5
20181015091704 19 234 5.0 7.0 0.00 0.05 0.00 91 1027.8
20181015090204 20 233 6.0 7.0 0.00 0.05 0.00 91 1027.8
20181015084704 20 217 5.0 6.0 0.00 0.05 0.00 91 1027.9
20181015083204 20 217 5.0 6.0 0.00 0.05 0.00 91 1028.0
20181015081704 20 211 4.0 5.0 0.00 0.05 0.00 91 1028.0
20181015080205 20 219 4.0 5.0 0.00 0.05 0.00 91 1028.0
20181015074704 20 222 4.0 5.0 0.00 0.05 0.00 91 1028.0